| time (UTC) | temp C | wind direction | speed KPH | gust KPH | rain 1hr cm | rain 24hr cm | rain mn cm | humidity % | barometer mb |
| 20260506004554 | 4 | 9 | 6.4 | 9.7 | 0.00 | 0.00 | 0.00 | 87 | 1011.3 |
| 20260506003051 | 4 | 15 | 6.4 | 12.9 | 0.00 | 0.00 | 0.00 | 87 | 1011.4 |
| 20260506001549 | 4 | 343 | 11.3 | 14.5 | 0.00 | 0.00 | 0.00 | 87 | 1011.5 |
| 20260506000055 | 4 | 348 | 8.0 | 12.9 | 0.00 | 0.00 | 0.00 | 87 | 1011.5 |
| 20260505234546 | 4 | 355 | 8.0 | 12.9 | 0.00 | 0.00 | 0.00 | 86 | 1011.6 |
| 20260505233043 | 4 | 355 | 8.0 | 12.9 | 0.00 | 0.00 | 0.00 | 85 | 1011.6 |
| 20260505231543 | 4 | 355 | 8.0 | 12.9 | 0.00 | 0.00 | 0.00 | 85 | 1011.7 |
| 20260505230040 | 5 | 5 | 6.4 | 12.9 | 0.00 | 0.00 | 0.00 | 84 | 1011.8 |
| 20260505224538 | 5 | 5 | 8.0 | 14.5 | 0.00 | 0.00 | 0.00 | 84 | 1011.8 |
| 20260505223035 | 5 | 13 | 8.0 | 16.1 | 0.00 | 0.00 | 0.00 | 83 | 1011.9 |
| 20260505221534 | 5 | 5 | 9.7 | 14.5 | 0.00 | 0.00 | 0.00 | 82 | 1011.9 |
| 20260505220048 | 5 | 19 | 11.3 | 14.5 | 0.00 | 0.00 | 0.00 | 81 | 1011.9 |
| 20260505214533 | 5 | 15 | 11.3 | 16.1 | 0.00 | 0.00 | 0.00 | 81 | 1011.9 |
| 20260505213032 | 6 | 20 | 8.0 | 12.9 | 0.00 | 0.00 | 0.00 | 81 | 1012.0 |
| 20260505211537 | 6 | 20 | 4.8 | 9.7 | 0.00 | 0.00 | 0.00 | 80 | 1011.9 |
| 20260505210033 | 7 | 129 | 0.0 | 4.8 | 0.00 | 0.00 | 0.00 | 76 | 1012.0 |
| 20260505204528 | 7 | 112 | 0.0 | 0.0 | 0.00 | 0.00 | 0.00 | 74 | 1011.8 |
| 20260505203027 | 7 | 112 | 0.0 | 0.0 | 0.00 | 0.00 | 0.00 | 73 | 1011.8 |
| 20260505201527 | 8 | 112 | 0.0 | 0.0 | 0.00 | 0.00 | 0.00 | 73 | 1011.9 |
| 20260505200027 | 8 | 112 | 0.0 | 0.0 | 0.00 | 0.00 | 0.00 | 72 | 1011.8 |
| 20260505194526 | 8 | 112 | 0.0 | 0.0 | 0.00 | 0.00 | 0.00 | 72 | 1011.8 |
| 20260505193034 | 8 | 112 | 0.0 | 1.6 | 0.00 | 0.00 | 0.00 | 74 | 1011.8 |
| 20260505191525 | 8 | 112 | 0.0 | 0.0 | 0.00 | 0.00 | 0.00 | 74 | 1011.7 |
| 20260505190028 | 8 | 112 | 0.0 | 0.0 | 0.00 | 0.00 | 0.00 | 74 | 1011.6 |
| 20260505184526 | 9 | 112 | 0.0 | 0.0 | 0.00 | 0.00 | 0.00 | 74 | 1011.5 |
| 20260505183034 | 10 | 112 | 0.0 | 4.8 | 0.00 | 0.00 | 0.00 | 74 | 1011.3 |
| 20260505181522 | 10 | 103 | 0.0 | 4.8 | 0.00 | 0.00 | 0.00 | 74 | 1011.4 |
| 20260505180021 | 10 | 98 | 0.0 | 0.0 | 0.00 | 0.00 | 0.00 | 73 | 1011.4 |
| 20260505174518 | 10 | 98 | 0.0 | 1.6 | 0.00 | 0.00 | 0.00 | 71 | 1011.5 |
| 20260505173015 | 10 | 96 | 0.0 | 4.8 | 0.00 | 0.00 | 0.00 | 70 | 1011.4 |
| 20260505171513 | 10 | 116 | 0.0 | 4.8 | 0.00 | 0.00 | 0.00 | 69 | 1011.5 |
| 20260505170012 | 10 | 117 | 1.6 | 6.4 | 0.00 | 0.00 | 0.00 | 68 | 1011.3 |
| 20260505164512 | 11 | 122 | 1.6 | 8.0 | 0.00 | 0.00 | 0.00 | 67 | 1011.2 |
| 20260505163011 | 11 | 117 | 3.2 | 9.7 | 0.00 | 0.00 | 0.00 | 67 | 1011.2 |
| 20260505161511 | 11 | 127 | 3.2 | 11.3 | 0.00 | 0.00 | 0.00 | 68 | 1011.2 |
| 20260505153009 | 12 | 100 | 1.6 | 11.3 | 0.00 | 0.00 | 0.00 | 67 | 1011.1 |
| 20260505151534 | 11 | 103 | 1.6 | 11.3 | 0.00 | 0.00 | 0.00 | 68 | 1010.9 |
| 20260505124613 | 14 | 67 | 1.6 | 8.0 | 0.00 | 0.00 | 0.00 | 46 | 1011.0 |
| 20260505123101 | 13 | 222 | 6.4 | 14.5 | 0.00 | 0.00 | 0.00 | 44 | 1011.1 |
| 20260505121557 | 13 | 12 | 4.8 | 12.9 | 0.00 | 0.00 | 0.00 | 45 | 1011.2 |
| 20260505120105 | 13 | 355 | 3.2 | 16.1 | 0.00 | 0.00 | 0.00 | 49 | 1011.1 |
| 20260505114558 | 13 | 311 | 1.6 | 9.7 | 0.00 | 0.00 | 0.00 | 52 | 1011.2 |
| 20260505113113 | 13 | 345 | 0.0 | 8.0 | 0.00 | 0.00 | 0.00 | 51 | 1011.2 |
| 20260505111555 | 13 | 131 | 0.0 | 3.2 | 0.00 | 0.00 | 0.00 | 53 | 1011.2 |
| 20260505101548 | 12 | 332 | 3.2 | 14.5 | 0.00 | 0.00 | 0.00 | 59 | 1011.4 |
| 20260505100047 | 13 | 5 | 8.0 | 16.1 | 0.00 | 0.00 | 0.00 | 57 | 1011.4 |
| 20260505094543 | 12 | 28 | 4.8 | 12.9 | 0.00 | 0.00 | 0.00 | 66 | 1011.6 |
| 20260505093043 | 11 | 327 | 3.2 | 14.5 | 0.00 | 0.00 | 0.00 | 66 | 1011.5 |
| 20260505091539 | 11 | 9 | 1.6 | 8.0 | 0.00 | 0.00 | 0.00 | 66 | 1011.4 |
| 20260505090036 | 11 | 32 | 3.2 | 12.9 | 0.00 | 0.00 | 0.00 | 66 | 1011.4 |
| 20260505084543 | 10 | 328 | 1.6 | 12.9 | 0.00 | 0.00 | 0.00 | 69 | 1011.5 |
| 20260505083028 | 10 | 355 | 6.4 | 14.5 | 0.00 | 0.00 | 0.00 | 70 | 1011.5 |
| 20260505081525 | 10 | 338 | 8.0 | 17.7 | 0.00 | 0.00 | 0.00 | 72 | 1011.4 |
| 20260505080024 | 9 | 360 | 11.3 | 17.7 | 0.00 | 0.00 | 0.00 | 73 | 1011.3 |
| 20260505074516 | 9 | 343 | 11.3 | 20.9 | 0.00 | 0.00 | 0.00 | 74 | 1011.3 |
| 20260505073012 | 8 | 5 | 14.5 | 22.5 | 0.00 | 0.00 | 0.00 | 77 | 1011.4 |
| 20260505071507 | 8 | 348 | 11.3 | 24.1 | 0.00 | 0.00 | 0.00 | 77 | 1011.2 |
| 20260505070004 | 8 | 355 | 14.5 | 25.7 | 0.00 | 0.00 | 0.00 | 77 | 1011.3 |
| 20260505064603 | 8 | 349 | 12.9 | 24.1 | 0.00 | 0.00 | 0.00 | 82 | 1011.1 |
| 20260505063102 | 7 | 344 | 11.3 | 22.5 | 0.00 | 0.00 | 0.00 | 88 | 1011.2 |
| 20260505061557 | 7 | 327 | 14.5 | 24.1 | 0.00 | 0.00 | 0.00 | 89 | 1011.3 |
| 20260505060057 | 7 | 324 | 14.5 | 20.9 | 0.00 | 0.00 | 0.00 | 94 | 1011.3 |
| 20260505054546 | 7 | 313 | 9.7 | 17.7 | 0.00 | 0.00 | 0.00 | 94 | 1011.2 |
| 20260505053106 | 6 | 289 | 8.0 | 17.7 | 0.00 | 0.00 | 0.00 | 95 | 1011.2 |
| 20260505051537 | 6 | 284 | 8.0 | 17.7 | 0.00 | 0.00 | 0.00 | 95 | 1011.0 |
| 20260505041521 | 4 | 285 | 9.7 | 16.1 | 0.00 | 0.03 | 0.00 | 94 | 1010.8 |
| 20260505040018 | 4 | 254 | 4.8 | 12.9 | 0.00 | 0.03 | 0.00 | 94 | 1010.8 |
| 20260505034524 | 3 | 237 | 4.8 | 11.3 | 0.00 | 0.03 | 0.00 | 94 | 1010.8 |
| 20260505033015 | 3 | 223 | 4.8 | 8.0 | 0.00 | 0.03 | 0.00 | 94 | 1010.9 |
| 20260505031515 | 3 | 254 | 8.0 | 12.9 | 0.00 | 0.03 | 0.00 | 94 | 1010.8 |
| 20260505030012 | 3 | 256 | 4.8 | 9.7 | 0.00 | 0.03 | 0.00 | 94 | 1011.0 |
| 20260505024511 | 3 | 246 | 4.8 | 11.3 | 0.00 | 0.05 | 0.00 | 93 | 1011.0 |
| 20260505023008 | 4 | 263 | 8.0 | 14.5 | 0.00 | 0.05 | 0.00 | 93 | 1011.1 |
| 20260505021504 | 4 | 263 | 6.4 | 14.5 | 0.00 | 0.05 | 0.00 | 93 | 1011.1 |
| 20260505020003 | 4 | 268 | 8.0 | 14.5 | 0.00 | 0.05 | 0.00 | 93 | 1011.2 |
| 20260505014503 | 4 | 272 | 8.0 | 12.9 | 0.00 | 0.13 | 0.00 | 93 | 1011.2 |
| 20260505013102 | 5 | 267 | 8.0 | 14.5 | 0.00 | 0.13 | 0.00 | 93 | 1011.3 |
| 20260505011611 | 5 | 264 | 4.8 | 12.9 | 0.00 | 0.13 | 0.00 | 93 | 1011.4 |
| 20260505010055 | 5 | 239 | 4.8 | 11.3 | 0.00 | 0.13 | 0.00 | 92 | 1011.5 |